Regional Weather Roundup
Issued by NWS

Home | Current Version | Previous Version | Text Only | Print | Product List | Glossary Off
Versions: 1 2 3 4 5 6 7 8 9 10 11 12 13 14 15 16 17 18 19 20 21 22 23 24 25 26 27 28 29 30 31 32 33 34 35 36 37 38 39 40 41 42 43 44 45 46 47 48 49 50

313
ASUS43 KLOT 280109
RWRIL

ILLINOIS REGIONAL WEATHER ROUNDUP
NATIONAL WEATHER SERVICE CHICAGO/ROMEOVILLE IL
800 PM CDT THU JUL 27 2017

NOTE: "FAIR" INDICATES FEW OR NO CLOUDS BELOW 12,000 FEET WITH NO
SIGNIFICANT WEATHER AND/OR OBSTRUCTIONS TO VISIBILITY.

* THESE STATIONS ARE NOT UNDER NWS QUALITY CONTROL. THEY ALSO MAY NOT
  REPORT WEATHER SUCH AS PRECIPITATION OR FOG.

ILZ001-002-007-009-015-016-024-280200-
NORTHWEST ILLINOIS

CITY           SKY/WX    TMP DP  RH WIND       PRES   REMARKS
MOLINE         CLEAR     80  63  55 NE10      29.93S HX  81
STERLING*      CLEAR     74  66  76 E7        29.95S
SAVANNA*       CLEAR     76  65  67 NE6       29.95S
$$

ILZ003-004-008-010-011-017-018-280200-
NORTH CENTRAL ILLINOIS

CITY           SKY/WX    TMP DP  RH WIND       PRES   REMARKS
ROCKFORD       PTCLDY    78  59  51 NE10      29.97S
FREEPORT*      PTCLDY    73  62  68 NE7       29.98S
ROCHELLE*      CLEAR     73  62  68 NE7       29.96S
DE KALB*       CLEAR     72  59  63 NE10      29.97S
PERU*          CLEAR     75  62  63 NE10      29.94S
$$

ILZ005-006-012>014-019>023-280200-
NORTHEAST ILLINOIS

CITY           SKY/WX    TMP DP  RH WIND       PRES   REMARKS
CHICAGO-OHARE  PTCLDY    74  57  55 N15       29.95R
CHICAGO-MIDWAY PTCLDY    74  62  66 N18       29.94R
AURORA         CLEAR     73  59  61 N10       29.95R
LANSING*       CLEAR     71  63  75 N10G20    29.94S
JOLIET*        CLEAR     76  57  51 NE12      29.93S
WAUKEGAN       CLEAR     72  54  53 N12       29.95S
DUPAGE AIRPORT CLEAR     73  55  53 N16       29.94S
WHEELING       CLEAR     72  57  59 N10       29.97R
MORRIS*        CLEAR     74  62  66 CALM      29.92S
ROMEOVILLE*    CLEAR     73  53  49 NE13G18   29.94R
$$

LMZ740>746-280200-
SOUTHERN LAKE MICHIGAN

STATION/POSITION SKY/WX   TEMP    WIND        PRES    VSBY  WAVE
                          AIR SEA DIR/SP/G                  HT/PER
                          (F)     (DEG/KT/KT) (MB)    (MI)  (FT/S)
SOUTHERN BUOY              71 71   10/ 19/ 23 1013.2          4/ 5
WILMETTE HARBOR            71 72  360/ 16/ 21   N/A           6/ 5
HARRISON CRIB              72     360/ 16/ 21   N/A
BURNHAM HARBOR             71                   N/A
CALUMET HARBOR             71     340/ 14/ 18 1013.5
BURNS HARBOR               73      10/ 16/ 20 1013.9R
MICHIGAN CITY              73     360/ 17/ 19   N/A
MICHIGAN CITY 6N           73 74   10/ 16/ 19   N/A           7/ 5
ST. JOSEPH                 72 73   50/ 12/ 17 1012.8          5/ 5
$$

ILZ025>027-034>036-040-047-049-050-058-095>099-280200-
WEST-CENTRAL ILLINOIS

CITY           SKY/WX    TMP DP  RH WIND       PRES   REMARKS
QUINCY         CLEAR     80  71  74 N7        29.91R HX  84
GALESBURG*     CLEAR     76  69  79 NE9       29.94S
MACOMB*        CLEAR     78  72  81 N7        29.94S HX  80
JACKSONVILLE*  CLOUDY    79  73  80 N5        29.89R HX  83
PITTSFIELD*    PTCLDY    80  74  82 N6        29.91S HX  84
$$

ILZ028>032-037-038-041>044-048-051>054-059>061-280200-
CENTRAL ILLINOIS

CITY           SKY/WX    TMP DP  RH WIND       PRES   REMARKS
PONTIAC        CLEAR     76  69  79 NE8       29.93R
BLOOMINGTON    CLOUDY    78  72  81 NE12      29.92R HX  80
DECATUR        MOCLDY    78  74  87 NE6       29.88S HX  81
PEORIA         PTCLDY    79  70  74 NE14      29.91R HX  82
LACON*         CLEAR     76  64  66 NE6       29.92R
LINCOLN*       CLOUDY    80  74  81 NE6       29.89S HX  84
SPRINGFIELD    PTCLDY    81  75  82 N6        29.88S HX  87
TAYLORVILLE    CLOUDY    76  76  98 CALM      29.88S
$$

ILZ033-039-045-046-055>057-062-063-280200-
EAST-CENTRAL ILLINOIS

CITY           SKY/WX    TMP DP  RH WIND       PRES   REMARKS
CHAMPAIGN      PTCLDY    80  72  76 NE8       29.89R HX  84
RANTOUL*       PTCLDY    79  73  81 NE13      29.90R HX  82
MATTOON        CLOUDY    77  77 100 N5        29.87R
PARIS*         CLOUDY    76  75  99 CALM      29.88S
$$

ILZ079-100>102-280200-
SOUTHWEST ILLINOIS

CITY           SKY/WX    TMP DP  RH WIND       PRES   REMARKS
ALTON          CLOUDY    75  75 100 NE6       29.88S
BELLEVILLE     PTCLDY    77  76  94 SW7       29.87F
CAHOKIA*       CLOUDY    79  75  87 N8        29.87S HX  83
SPARTA*        CLOUDY    82  73  73 CALM      29.88S HX  87
$$

ILZ064>066-069>071-074>076-080>082-084>086-088>090-092>094-280200-
SOUTH-CENTRAL ILLINOIS

CITY           SKY/WX    TMP DP  RH WIND       PRES   REMARKS
CARBONDALE     CLOUDY    81  73  76 W3        29.87R HX  86
CAIRO*         CLOUDY    81  77  90 CALM      29.87S HX  88
EFFINGHAM*     RAIN      76  76  99 W5        29.89R
MARION         CLOUDY    79  79 100 CALM      29.88S HX  83
MT. VERNON     CLEAR     81  75  82 CALM      29.86S HX  87
CENTRALIA*     MOCLDY    82  78  88 CALM      29.85F HX  90
SALEM*         CLOUDY    80  77  91 CALM      29.86F HX  85
METROPOLIS*    CLOUDY    81  74  80 SW3       29.88F HX  86
$$

ILZ067-068-072-073-078-083-087-091-280200-
SOUTHEAST ILLINOIS

CITY           SKY/WX    TMP DP  RH WIND       PRES   REMARKS
LAWRENCEVILLE  HVY RAIN  76  75  97 W7        29.87S VSB 1/2
FLORA*         CLOUDY    80  78  93 NW3       29.87S HX  87
FAIRFIELD*     MOCLDY    80  76  87 CALM      29.85S HX  85
HARRISBURG*    HVY RAIN  80  78  94 CALM      29.87F HX  88
ROBINSON*      CLOUDY    76  75  98 N3        29.87S
CARMI*         MOCLDY    80  77  92 S7        29.86S HX  85
$$

ABBREVIATIONS USED IN REMARKS
   TC - TEMPERATURE IN CELSIUS
  WCI - WIND CHILL INDEX
   HX - HEAT INDEX
  VSB - VISIBILITY
$$





USA.gov is the U.S. government's official web portal to all federal, state and local government web resources and services.